Location: Aït Ben Ahmed
(31.1328°N, 8.9018°W)
Time: 01:01:08
(UTC+00:00)

Daily predictions for brighter satellites

Satellite Brightness Start Highest point End
(mag) Time Altitude Azimuth Time Altitude Azimuth Time Altitude Azimuth
Cosmos 2219 Rocket 4.5 00:22:58 17° NE 00:22:58 17° NE 00:24:15 10° NE
SL-16 R/B 4.1 00:24:00 25° NNW 00:24:00 25° NNW 00:27:02 10° N
Cosmos 2360 Rocket 4.1 00:57:53 25° NNW 00:57:53 25° NNW 01:00:38 10° N
USA 267 4.5 01:12:54 32° NW 01:12:54 32° NW 01:16:08 10° NW
CZ-2D R/B 4.5 01:07:23 10° NE 01:09:00 16° ENE 01:09:00 16° ENE
Cosmos 2333 Rocket 3.9 01:21:08 28° NNW 01:21:08 28° NNW 01:24:03 10° N
ATLAS 3B R/B 4.3 01:46:35 10° NW 01:49:48 25° WNW 01:49:48 25° WNW
Lacrosse 5 4.4 01:56:55 13° E 01:56:55 13° E 01:57:54 10° ENE
ATLAS CENTAUR R/B 4.0 01:50:05 10° NNW 01:51:38 20° N 01:51:38 20° N
Resurs 1-4 Rocket 3.4 01:52:16 10° NNE 01:55:28 37° NE 01:55:28 37° NE
Cosmos 2219 Rocket 4.1 02:04:40 21° NW 02:04:40 21° NW 02:07:32 10° N
SL-16 R/B 3.3 02:08:58 42° E 02:09:45 45° ENE 02:15:36 10° N
COSMOS 2428 4.3 02:13:50 26° NW 02:13:50 26° NW 02:17:15 10° N
ATLAS CENTAUR Rocket 4.2 02:20:29 34° SE 02:20:29 34° SE 02:30:44 10° ESE
FALCON 9 R/B 4.4 01:43:57 10° W 02:21:41 84° NNE 02:29:56 10° E
Cosmos 2237 Rocket 2.8 02:24:38 52° N 02:24:38 52° N 02:28:58 10° NNE
ADEOS II 2.9 02:18:38 10° NNE 02:22:43 47° ENE 02:22:43 47° ENE
IDEFIX/ARIANE 42P 3.2 02:28:26 10° NNE 02:32:56 53° ENE 02:32:56 53° ENE
Meteor 2-10 Rocket 3.8 02:38:49 10° N 02:43:45 68° N 02:43:45 68° N
CZ-2D R/B 3.2 02:46:30 10° N 02:50:19 34° NW 02:50:19 34° NW
Cosmos 1025 Rocket 4.4 02:55:08 32° NNW 02:55:08 32° NNW 02:57:37 10° N
Cosmos 2278 Rocket 2.0 02:54:55 10° NNW 03:00:30 84° WNW 03:00:30 84° WNW
Meteor 1-24 Rocket 3.7 03:03:56 67° WNW 03:03:56 67° WNW 03:09:25 10° N
BREEZE-M DEB (TANK) 3.6 03:03:47 73° S 03:04:05 75° SE 03:07:28 10° NE
Cosmos 2184 Rocket 4.3 02:58:04 10° N 03:04:15 62° E 03:07:01 33° SSE
Meteor 2-5 Rocket 4.0 03:04:48 56° WNW 03:04:48 56° WNW 03:10:13 10° N
CZ-4C R/B 3.0 02:57:04 10° NNW 03:04:59 76° WSW 03:13:46 10° SSE
Cosmos 1544 Rocket 4.0 03:01:45 10° N 03:06:00 57° ENE 03:06:00 57° ENE
USA 229 DEB 4.0 02:58:57 10° NNW 03:06:34 79° ENE 03:14:33 10° SSE
USA 229 4.0 02:59:03 10° NNW 03:06:40 78° ENE 03:14:37 10° SSE
SL-16 R/B 2.0 03:06:34 76° S 03:06:59 84° ESE 03:12:40 10° NNE
Cosmos 1943 Rocket 4.1 03:07:40 10° N 03:12:32 29° ENE 03:17:21 10° ESE
MOS 1 Rocket 4.2 03:15:20 35° NW 03:15:20 35° NW 03:17:57 10° NNW
IRS-1D 3.5 03:08:30 10° NNE 03:13:51 84° ESE 03:14:30 69° S
COSMOS 2441 4.2 03:12:31 10° NNE 03:17:23 87° WNW 03:17:35 83° SW
CZ-3 R/B 4.5 02:22:11 10° WSW 03:23:34 76° S 03:37:07 10° E
BREEZE-M DEB (TANK) 4.0 03:25:01 29° ESE 03:25:01 29° ESE 03:28:21 10° ENE
CZ-2C R/B 3.9 03:24:33 10° NNE 03:29:09 33° E 03:32:28 16° SSE
COSMOS 2455 3.0 03:27:34 42° S 03:29:35 70° ESE 03:35:35 10° NNE
SeaSat 1 3.3 03:26:23 10° NE 03:31:04 42° ESE 03:33:01 29° SSE
Lacrosse 5 rocket 1.2 03:32:55 78° ENE 03:32:55 78° ENE 03:36:40 10° NE
NOSS 3-1 (A) 4.3 03:25:23 10° NW 03:33:23 58° WSW 03:42:17 10° S
Resurs 1-4 Rocket 4.2 03:34:34 10° NW 03:36:33 12° WNW 03:36:33 12° WNW
Lacrosse 5 2.2 03:36:07 45° W 03:37:02 51° NW 03:42:00 10° NNE
Cosmos 292 Rocket 3.7 03:36:37 50° S 03:37:50 80° ESE 03:42:39 10° NNE
H-II Stage 2 3.2 03:20:32 10° W 03:39:58 69° SSW 03:43:42 10° ESE
Nadezhda 1 Rocket 4.1 03:40:08 40° SW 03:42:25 63° W 03:48:43 10° N
Cosmos 1271 Rocket 3.5 03:41:17 10° N 03:44:59 50° E 03:47:28 19° SSE
Helios 1A 4.2 03:47:52 26° WNW 03:47:52 26° WNW 03:50:20 10° NW
Cosmos 1269 Rocket 3.9 03:42:49 10° NNW 03:48:05 77° WSW 03:52:10 17° S
MOS 1-B Rocket 4.3 03:44:41 10° SSE 03:50:28 63° ENE 03:55:59 10° N
SL-16 R/B 3.7 03:54:02 22° W 03:54:02 22° W 03:58:08 10° NW
Cosmos 1536 Rocket 4.3 03:56:05 33° W 03:56:17 33° W 04:00:18 10° NNW
Cosmos 1455 3.1 03:59:00 10° NNW 04:01:41 29° WNW 04:01:41 29° WNW
ADEOS II 3.9 04:00:17 10° NW 04:02:55 14° WNW 04:03:38 14° WNW
PAYLOAD A 3.9 03:58:17 10° NNE 04:03:00 77° ESE 04:06:23 20° S
IRS-P3 4.2 04:00:57 10° NNE 04:06:18 78° ESE 04:10:39 16° S
Meteor 1-21 Rocket 4.2 04:02:37 23° SSW 04:06:20 76° W 04:11:58 10° N
Cosmos 1943 3.5 04:02:36 18° S 04:06:53 65° ESE 04:12:32 10° NNE
Cosmos 1703 3.8 04:06:33 36° WSW 04:07:06 38° W 04:10:47 10° NNW
Helios 1B rocket 2.9 04:04:11 10° N 04:08:00 41° WNW 04:09:03 34° WSW
Cosmos 2154 Rocket 4.2 04:03:24 10° NNW 04:09:29 51° W 04:14:10 17° SSW
IDEFIX/ARIANE 42P 4.4 04:09:58 10° NW 04:12:38 14° WNW 04:13:45 13° W
Cosmos 2228 3.0 04:17:06 10° NNW 04:21:24 61° W 04:25:35 10° S
Lacrosse 4 Rocket 4.4 04:22:05 10° ESE 04:23:20 11° ESE 04:24:34 10° E
SL-8 Rocket 4.3 04:17:20 10° N 04:23:40 74° E 04:29:58 10° S
Cosmos 2297 3.6 04:21:52 10° NNW 04:27:37 78° WSW 04:33:19 10° SSE
Cosmos 1606 Rocket 3.5 04:25:07 10° N 04:29:32 80° W 04:33:53 10° S
ALOS 2.6 04:26:06 10° N 04:30:34 48° WNW 04:34:03 16° SW
Cosmos 1484 Rocket 3.4 04:28:45 10° NNE 04:32:32 57° E 04:36:21 10° S
GPS 2-04 Rocket1 3.7 04:38:31 15° SSW 04:40:52 30° SSE 04:44:08 10° E
Cosmos 1624 Rocket 4.2 04:38:39 10° S 04:43:56 75° ESE 04:49:15 10° NNE
Envisat 4.2 04:40:39 10° NNE 04:45:29 43° E 04:50:17 10° S
Cosmos 1408 2.5 04:42:53 10° S 04:46:31 79° W 04:50:11 10° N
ARIANE 5 R/B 3.0 04:43:03 10° N 04:47:48 42° WNW 04:52:30 10° SW
Cosmos 1140 Rocket 4.5 04:43:44 10° N 04:48:51 52° ENE 04:53:56 10° SSE
METEOR-M 4.2 04:43:37 10° N 04:48:53 60° WNW 04:54:07 10° SSW
CZ-4C R/B 3.6 04:47:12 10° SSE 04:50:36 61° ENE 04:54:10 10° N
SL-16 R/B 4.2 04:50:12 10° WNW 04:51:45 11° NW 04:53:17 10° NW
ATLAS 2A CENTAUR R/B 3.1 04:41:20 12° WSW 04:52:08 50° S 04:56:42 10° ESE
Meteor 1-29 4.1 04:50:36 10° NNW 04:53:17 24° WNW 04:55:40 12° SW
Cosmos 2056 Rocket 3.5 04:49:13 10° SSW 04:54:20 86° WNW 04:59:33 10° NNE
Cosmos 1892 Rocket 4.3 04:50:28 10° SW 04:54:30 35° W 04:58:35 10° NNW
Cosmos 2218 Rocket 4.0 04:48:48 10° N 04:55:00 73° W 05:01:16 10° S
Cosmos 1943 Rocket 2.9 04:51:16 10° NW 04:56:09 30° WSW 05:01:00 10° SSW
Cosmos 2251 Rocket 3.5 04:52:49 10° NNW 04:58:02 68° WSW 05:03:16 10° S
Cosmos 2181 Rocket 4.5 04:53:04 10° SSW 04:58:59 42° W 05:04:52 10° N
YAOGAN 6 2.9 04:57:00 10° NNE 05:00:35 68° E 05:04:09 10° S
Cosmos 2369 Rocket 2.2 04:57:03 10° NNW 05:02:40 83° WSW 05:08:14 10° SSE
Cosmos 1825 2.5 04:59:12 10° S 05:02:52 68° E 05:06:34 10° NNE
CZ-2C R/B 3.5 04:58:17 10° SSE 05:03:17 53° ENE 05:08:20 10° N
OAO 2 Rocket 3.5 04:58:48 10° WSW 05:03:39 64° SSE 05:08:30 10° ENE
Cosmos 1892 2.9 05:00:17 10° SSW 05:03:59 51° W 05:07:42 10° N
Cosmos 1241 Rocket 4.5 05:00:04 10° SSW 05:06:15 83° WNW 05:12:28 10° NNE
CZ-2C R/B 3.8 05:03:11 10° NNW 05:07:04 22° WNW 05:10:53 10° WSW
SeaSat 1 4.0 05:04:41 10° N 05:08:13 20° WNW 05:11:45 10° WSW
SEDSat Delta rocket 4.4 05:03:17 10° SW 05:09:46 52° SSE 05:15:48 10° E
Cosmos 1726 Rocket 4.3 05:07:07 10° NNW 05:11:02 32° W 05:14:54 10° SSW
In-Cosmos 22 Rocket 4.3 05:07:21 10° SSW 05:13:01 71° W 05:18:50 10° N
